Weather History for State College, PA

Change the Weather History Date:

Friday, September 27, 2013

  Actual Average Record
Temperature  
Mean Temperature 62 °F -  
Max Temperature 71 °F 68 °F 84 °F (1958)
Min Temperature 52 °F 48 °F 29 °F (1947)
Degree Days  
Heating Degree Days 3    
Growing Degree Days 12 (Base 50)    
Moisture  
Dew Point 50 °F    
Average Humidity 76    
Maximum Humidity 90    
Minimum Humidity 43    
Precipitation  
Precipitation 0.00 in - - ()
Sea Level Pressure  
Sea Level Pressure 30.19 in    
Wind  
Wind Speed 4 mph (NE)    
Max Wind Speed 9 mph    
Max Gust Speed -    
Visibility 10 miles    
Events      
Averages and records for this station are not official NWS values.
T = Trace of Precipitation, MM = Missing Value Source: NWS Daily Summary

Daily Weather History Graph

Daily Weather History Graph

Search for Another Location

Airport:

Trip Planner

Search our weather history database for the weather conditions in past years. The results will help you decide how hot, cold, wet, or windy it might be!

Date:

Astronomy

Sep. 27, 2013 Rise Set
Actual Time 7:04 AM EDT 6:59 PM EDT
Civil Twilight 6:36 AM EDT 7:26 PM EDT
Nautical Twilight 6:04 AM EDT 7:58 PM EDT
Astronomical Twilight 5:32 AM EDT 8:31 PM EDT
Moon No Moon Rise 2:38 PM EDT (9/27)
Length of Visible Light 12h 50m
Length of Day
11h 55m
Last Quarter, 45% of the Moon is Illuminated
Sep 27
Last Quarter
Oct 4
New
Oct 11
First Quarter
Oct 18
Full
Oct 26
Last Quarter

Hourly Weather History & Observations

Time (EDT) Temp. Dew Point Humidity Pressure Visibility Wind Dir Wind Speed Gust Speed Precip Events Conditions
12:15 AM 58.8 °F 50.9 °F 75% 30.12 in 10.0 mi NE 4.6 mph - N/A   Overcast
12:35 AM 57.6 °F 50.5 °F 77% 30.13 in 10.0 mi Calm Calm - N/A   Overcast
12:55 AM 57.7 °F 50.9 °F 78% 30.12 in 10.0 mi NE 5.8 mph - N/A   Overcast
1:15 AM 58.6 °F 50.7 °F 75% 30.13 in 10.0 mi NNE 5.8 mph - N/A   Overcast
1:35 AM 57.9 °F 50.5 °F 76% 30.13 in 10.0 mi NE 6.9 mph - N/A   Mostly Cloudy
1:55 AM 57.0 °F 50.4 °F 78% 30.14 in 10.0 mi NE 5.8 mph - N/A   Mostly Cloudy
2:15 AM 57.4 °F 50.5 °F 78% 30.14 in 10.0 mi NE 5.8 mph - N/A   Overcast
2:35 AM 57.2 °F 50.4 °F 78% 30.14 in 10.0 mi NNE 5.8 mph - N/A   Overcast
2:55 AM 56.7 °F 50.2 °F 79% 30.14 in 10.0 mi NNE 5.8 mph - N/A   Mostly Cloudy
3:15 AM 55.8 °F 50.0 °F 81% 30.14 in 10.0 mi NNE 5.8 mph - N/A   Mostly Cloudy
3:35 AM 55.4 °F 49.6 °F 81% 30.14 in 10.0 mi NNE 5.8 mph - N/A   Mostly Cloudy
3:55 AM 55.4 °F 50.0 °F 82% 30.14 in 10.0 mi NNE 4.6 mph - N/A   Mostly Cloudy
4:15 AM 54.3 °F 49.6 °F 84% 30.15 in 10.0 mi NE 4.6 mph - N/A   Mostly Cloudy
4:35 AM 53.8 °F 50.0 °F 87% 30.15 in 10.0 mi NE 4.6 mph - N/A   Mostly Cloudy
4:55 AM 54.7 °F 50.2 °F 85% 30.15 in 10.0 mi NNE 5.8 mph - N/A   Overcast
5:15 AM 54.9 °F 50.0 °F 84% 30.15 in 10.0 mi NNE 5.8 mph - N/A   Overcast
5:35 AM 54.5 °F 50.0 °F 85% 30.16 in 10.0 mi NE 5.8 mph - N/A   Overcast
5:53 AM 53.6 °F 50.0 °F 88% 30.16 in 7.0 mi NE 9.2 mph - N/A   Overcast
6:53 AM 53.6 °F 50.0 °F 88% 30.19 in 10.0 mi NE 9.2 mph - N/A   Mostly Cloudy
7:53 AM 53.6 °F 50.0 °F 88% 30.22 in 10.0 mi ENE 6.9 mph - N/A   Mostly Cloudy
8:53 AM 55.4 °F 50.0 °F 82% 30.23 in 10.0 mi Variable 3.5 mph - N/A   Overcast
9:53 AM 57.2 °F 51.8 °F 82% 30.23 in 10.0 mi Variable 5.8 mph - N/A   Overcast
10:53 AM 60.8 °F 51.8 °F 72% 30.24 in 10.0 mi Calm Calm - N/A   Mostly Cloudy
12:53 PM 66.2 °F 51.8 °F 60% 30.23 in 10.0 mi Calm Calm - N/A   Mostly Cloudy
1:53 PM 66.2 °F 51.8 °F 60% 30.23 in 10.0 mi Calm Calm - N/A   Scattered Clouds
2:53 PM 68.0 °F 50.0 °F 52% 30.21 in 10.0 mi Calm Calm - N/A   Mostly Cloudy
3:53 PM 71.6 °F 48.2 °F 43% 30.19 in 10.0 mi Calm Calm - N/A   Mostly Cloudy
4:53 PM 68.0 °F 50.0 °F 52% 30.19 in 10.0 mi Calm Calm - N/A   Mostly Cloudy
6:53 PM 66.2 °F 48.2 °F 52% 30.20 in 10.0 mi Calm Calm - N/A   Partly Cloudy
7:53 PM 62.6 °F 48.2 °F 59% 30.22 in 10.0 mi Calm Calm - N/A   Clear
8:53 PM 59.0 °F 50.0 °F 72% 30.22 in 10.0 mi Calm Calm - N/A   Clear
9:15 PM 57.4 °F 49.1 °F 74% 30.22 in 10.0 mi Calm Calm - N/A   Scattered Clouds
9:35 PM 58.5 °F 49.3 °F 72% 30.23 in 10.0 mi Calm Calm - N/A   Scattered Clouds
9:55 PM 57.2 °F 49.1 °F 74% 30.23 in 10.0 mi WNW 3.5 mph - N/A   Clear
10:15 PM 57.2 °F 49.5 °F 75% 30.24 in 10.0 mi Calm Calm - N/A   Mostly Cloudy
10:35 PM 56.5 °F 49.5 °F 77% 30.25 in 10.0 mi Calm Calm - N/A   Overcast
10:55 PM 54.5 °F 49.5 °F 83% 30.25 in 10.0 mi ENE 3.5 mph - N/A   Mostly Cloudy
11:15 PM 54.3 °F 49.5 °F 84% 30.25 in 10.0 mi Calm Calm - N/A   Mostly Cloudy
11:35 PM 53.4 °F 48.9 °F 85% 30.25 in 10.0 mi Calm Calm - N/A   Scattered Clouds
11:55 PM 52.3 °F 49.5 °F 90% 30.25 in 10.0 mi Calm Calm - N/A   Scattered Clouds